{"data":{"norad_id":54021,"intl_designator":"2022-126B","name":"CENTISPACE-1 S6","alt_names":[],"object_type":"PAYLOAD","status":"ACTIVE","operator":null,"country":"PRC","launch_date":"2022-10-07","launch_site_code":"SEAL","launch_vehicle":null,"mission":null,"orbit_class":"UNKNOWN","rcs_meters":null,"size_class":null,"mass_kg":null,"dimensions":null,"purposes":[],"wikipedia_slug":null,"has_3d_model":false,"image_url":null,"decayed_at":null,"tle_current":{"epoch":"2026-05-25T04:14:53.249280Z","epoch_age_seconds":53780,"freshness":"FRESH","line1":"1 54021U 22126B   26145.17700520  .00000546  00000+0  14445-3 0  9990","line2":"2 54021  54.9998 306.7955 0015237  27.6594 332.5208 14.62252465193636","mean_motion":14.62252465,"eccentricity":0.0015237,"inclination_deg":54.9998,"raan_deg":306.7955,"arg_perigee_deg":27.6594,"mean_anomaly_deg":332.5208,"bstar":0.00014445,"rev_number":19363,"period_min":98.478206360897,"perigee_km":675.14683268452,"apogee_km":696.67381049233,"semimajor_km":7064.0473215884,"source":"CELESTRAK","updated_at":"2026-05-25T13:37:58.520525Z"}}}